Погода в Исаевском

Россия / Ивановская область     57°00′51″N   39°41′52″E
темп.,
°C
ветер,
м/с
пор.,
м/с
влажн.,
%
обл.,
%
осадки,
мм/ч
давл.,
гПа
погр.,
м
17 октября, вс
вс1700:00+5юз511860 0.0 1011329
03:00+4юз512925 0.0 1011344
06:00+4юз614885 0.0 1010472
09:00+5юз6118341 0.0 1010758
12:00+7зюз81077100 0.0 1010882
15:00+8зюз7107587 0.0 10101016
18:00+7юз5118098 0.1 1010780
21:00+5юз5128897 0.1 1010501
18 октября, пн
пн1800:00+4юз51193100 0.0 1009340
03:00+4юз4996100 0.0 1009272
06:00+5юз2792100 0.2 1008612
09:00+5зюз3593100 1.4 1007622
12:00+6зюз4676100 0.3 1007762
15:00+7зюз58663 0.9 10071172
18:00+4зюз4107465 0.0 1007300
21:00+2зюз378911 0.0 1008185
19 октября, вт
вт1900:00+1з379170 0.0 1009146
03:000з379595 0.0 1010192
06:00+2зсз5890100 0.1 1010587
09:00+2сз489695 0.9 1012507
12:00+3сз677998 0.1 1013808
15:00+4сз6772100 0.2 10141014
18:00+2сз5883100 0.0 1016557
21:00+1зсз3894100 0.0 1016315
20 октября, ср
ср2000:000зсз5109445 0.0 1017405
03:00−1сз599484 0.0 1018405
06:00−2зсз599412 0.1 1020324
09:00−2зсз468075 0.1 1021362
12:00+1зсз456137 0.0 1021890
15:00+2з34557 0.0 1020976
18:00−1юз3468100 0.0 102058
21:00−2ю497623 0.0 1018210
21 октября, чт
чт2100:00−1ю61374100 0.0 1016344
03:00+1ю81685100 0.1 1012545
06:00+2ююз91883100 1.1 1008689
09:00+3ююз91788100 2.1 1005697
12:00+5ююз91890100 1.0 1002617
15:00+7ююз91882100 1.3 1000614
18:00+8ююз91975100 0.2 998762
21:00+8юз101988100 1.5 997827